Location: Ariel
(45.9570°N, 122.5700°W)
Time: 17:19:12
(UTC-07:00)

Transit 4A - Pass Details

Date: 24 July 2019
Orbit: 863 x 981 km, 66.8° (Epoch: 22 August)

Event Time Altitude Azimuth Distance (km) Brightness Sun altitude
Exits shadow 01:33:44 44° 144° (SE) 1,333 8.3 -24.0°
Maximum altitude 01:34:51 48° 114° (ESE) 1,257 8.4 -24.0°
Drops below altitude 10° 01:40:58 10° 42° (NE) 2,741 11.1 -23.9°
Sets 01:43:38 0° 37° (NE) 3,690 12.0 -23.9°
